sat.trackr.live / text

‹ back to catalog

STARLINK-35173

NORAD 65744 · 2025-216L

PAYLOAD ACTIVE UNKNOWN

§ Identity

Operator
Country
US
Launch date
2025-09-25
Launch site
AFETR
Launch vehicle
Mass (kg)
RCS (m²)

Purposes: comms

External: N2YO · Heavens-Above · Gunter

§ Orbital elements

Epoch: 2026-05-24T23:02:37.059360Z

Period
94.11 min
Inclination
53.1594°
Eccentricity
0.0001070
Mean motion
15.30201039 rev/d
Perigee alt
474.5 km
Apogee alt
475.9 km
Semi-major
6,853.3 km
B*
8.7552e-4
RAAN
338.4324°
Arg perigee
89.5421°
Mean anomaly
270.5702°
Rev number
3,827

§ Raw data

STARLINK-351731 65744U 25216L   26144.96015115  .00025661  00000+0  87552-3 0  99962 65744  53.1594 338.4324 0001070  89.5421 270.5702 15.30201039 38276

JSON: /api/v1/satellites/65744 · /tle

For live sub-satellite position, see the globe view (requires WebGL).

§ Visibility from observer

Set your observer location to see the next 7 days of passes ≥ 10°. The values pass through the URL so the page stays shareable.

No JS? Fill the form by hand. The geolocation button needs JavaScript.